Regional Weather Roundup
Issued by NWS

Home | Current Version | Previous Version | Graphics & Text | Print | Product List | Glossary On
Versions: 1 2 3 4 5 6 7 8 9 10 11 12 13 14 15 16 17 18 19 20 21 22 23 24 25 26 27 28 29 30 31 32 33 34 35 36 37 38 39 40 41 42 43 44 45 46 47 48 49 50
000
ASUS43 KLOT 220906
RWRIL

ILLINOIS REGIONAL WEATHER ROUNDUP
NATIONAL WEATHER SERVICE CHICAGO/ROMEOVILLE IL
300 AM CST MON DEC 22 2014

NOTE: "FAIR" INDICATES FEW OR NO CLOUDS BELOW 12,000 FEET WITH NO
SIGNIFICANT WEATHER AND/OR OBSTRUCTIONS TO VISIBILITY.

* THESE STATIONS ARE NOT UNDER NWS QUALITY CONTROL. THEY ALSO MAY NOT
  REPORT WEATHER SUCH AS PRECIPITATION OR FOG.

ILZ001-002-007-009-015-016-024-221000-
NORTHWEST ILLINOIS

CITY           SKY/WX    TMP DP  RH WIND       PRES   REMARKS
MOLINE         CLOUDY    36  31  82 S12       29.86F WCI  28
STERLING*      CLOUDY    34  28  80 SE8       29.91F WCI  27
SAVANNA*       CLOUDY    35  31  86 SE9       29.89F WCI  28
$$

ILZ003-004-008-010-011-017-018-221000-
NORTH CENTRAL ILLINOIS

CITY           SKY/WX    TMP DP  RH WIND       PRES   REMARKS
ROCKFORD       LGT RAIN  33  30  88 S12       29.95F FOG     WCI  24
FREEPORT*      CLOUDY    32  32  97 SE13      29.92F FOG     WCI  23
ROCHELLE*      DRIZZLE   32  31  95 SE14      29.93F WCI  22
DE KALB*       CLOUDY    31  28  90 SE10      29.95F FOG     WCI  22
PERU*          CLOUDY    34  31  89 SE13      29.93F FOG     WCI  25
$$

ILZ005-006-012>014-019>023-221000-
NORTHEAST ILLINOIS

CITY           SKY/WX    TMP DP  RH WIND       PRES   REMARKS
CHICAGO-OHARE  MOCLDY    28  25  88 SE7       29.97F WCI  21
CHICAGO-MIDWAY MOCLDY    33  27  78 SE7       29.99F WCI  27
AURORA         CLOUDY    32  27  81 SE7       29.96F HAZE    WCI  26
LANSING*       MOCLDY    30  26  85 SE9       29.99F FOG     WCI  22
JOLIET*        CLOUDY    31  28  88 SE6       29.97F FOG     WCI  25
WAUKEGAN       CLOUDY    32  27  81 SE9       29.97F WCI  24
DUPAGE AIRPORT CLOUDY    32  27  81 SE8       29.96F WCI  25
KANKAKEE*      MOCLDY    30  28  91 SE8       29.99F WCI  23
WHEELING       MOCLDY    30  26  85 SE7       29.99F WCI  23
MORRIS*        CLOUDY    33  31  90 S7        29.96S WCI  27
ROMEOVILLE*    CLOUDY    30  28  92 S9        29.97F FOG     WCI  22
NORTHERLY ISL    N/A     32  27  82 SE8         N/A  WCI  25
$$

LMZ740>746-221000-
SOUTHERN LAKE MICHIGAN

STATION/POSITION SKY/WX   TEMP    WIND        PRES    VSBY  WAVE
                          AIR SEA DIR/SP/G                  HT/PER
                          (F)     (DEG/KT/KT) (MB)    (MI)  (FT/S)
WAUKEGAN HARBOR            34     170/ 16/ 20   N/A
HARRISON CRIB              33     170/ 15/ 17   N/A
BURNHAM HARBOR             32     160/  7/ 11   N/A
CALUMET HARBOR             31     150/  6/ 12 1014.4F
$$

ILZ025>027-034>036-040-047-049-050-058-095>099-221000-
WEST-CENTRAL ILLINOIS

CITY           SKY/WX    TMP DP  RH WIND       PRES   REMARKS
QUINCY         CLOUDY    39  33  79 SE12      29.83F WCI  32
GALESBURG*     CLOUDY    36  32  86 SE7       29.87F WCI  30
MACOMB*        CLOUDY    37  33  87 SE12      29.88F WCI  29
JACKSONVILLE*  CLOUDY    40  33  77 SE9       29.88F
PITTSFIELD*    CLOUDY    40  34  78 SE10      29.85F
$$

ILZ028>032-037-038-041>044-048-051>054-059>061-221000-
CENTRAL ILLINOIS

CITY           SKY/WX    TMP DP  RH WIND       PRES   REMARKS
PONTIAC        CLOUDY    34  31  90 SE13      29.96S WCI  25
BLOOMINGTON    CLOUDY    33  30  89 SE12      29.94F WCI  24
DECATUR        CLOUDY    35  30  82 SE9       29.95F WCI  28
PEORIA         LGT RAIN  38  30  73 SE8       29.92F WCI  32
LACON*         CLOUDY    35  30  82 S8        29.92F WCI  28
LINCOLN*       CLOUDY    37  32  84 SE9       29.94F WCI  30
SPRINGFIELD    LGT RAIN  38  32  79 SE12      29.92F WCI  30
TAYLORVILLE    CLOUDY    36  30  80 SE8       29.92F WCI  29
$$

ILZ033-039-045-046-055>057-062-063-221000-
EAST-CENTRAL ILLINOIS

CITY           SKY/WX    TMP DP  RH WIND       PRES   REMARKS
CHAMPAIGN      CLOUDY    32  28  85 SE10      29.96F WCI  24
DANVILLE*      CLOUDY    31  28  90 E6        29.95F WCI  25
RANTOUL*       CLOUDY    33  31  90 SE10      29.96F WCI  25
MATTOON        CLOUDY    33  28  81 SE9       29.94F WCI  25
PARIS*         CLOUDY    32  30  92 SE5       29.98F WCI  27
$$

ILZ079-100>102-221000-
SOUTHWEST ILLINOIS

CITY           SKY/WX    TMP DP  RH WIND       PRES   REMARKS
ALTON          CLOUDY    39  32  75 E8        29.88F WCI  34
BELLEVILLE     CLOUDY    40  33  75 E8        29.88F
CAHOKIA*       LGT RAIN  41  32  70 SE8       29.87F
SPARTA*        CLOUDY    39  31  73 SE9       29.89F WCI  33
$$

ILZ064>066-069>071-074>076-080>082-084>086-088>090-092>094-221000-
SOUTH-CENTRAL ILLINOIS

CITY           SKY/WX    TMP DP  RH WIND       PRES   REMARKS
CARBONDALE     CLOUDY    39  30  70 E7        29.90F WCI  34
CAIRO*         CLOUDY    43  37  79 E5        29.90F
EFFINGHAM*     CLOUDY    35  28  77 E8        29.96F WCI  28
MARION         CLOUDY    41  32  70 SE8       29.92F
MT. VERNON     CLOUDY    37  27  65 E6        29.93F WCI  33
CENTRALIA*     CLOUDY    38  30  72 E7        29.91F WCI  33
SALEM*         CLOUDY    39  31  72 SE5       29.93S
METROPOLIS*    CLOUDY    41  35  79 E3        29.91S
$$

ILZ067-068-072-073-078-083-087-091-221000-
SOUTHEAST ILLINOIS

CITY           SKY/WX    TMP DP  RH WIND       PRES   REMARKS
LAWRENCEVILLE  CLOUDY    34  30  85 E7        29.98F WCI  28
FLORA*         CLOUDY    35  31  85 E7        29.95F WCI  29
FAIRFIELD*     CLOUDY    37  31  79 E5        29.93F WCI  33
HARRISBURG*    CLOUDY    38  32  79 E3        29.94F
ROBINSON*      CLOUDY    32  30  90 E3        29.99F
CARMI*         CLOUDY    38  34  84 E7        29.94F WCI  33
$$

ABBREVIATIONS USED IN REMARKS
   TC - TEMPERATURE IN CELSIUS
  WCI - WIND CHILL INDEX
   HX - HEAT INDEX
  VSB - VISIBILITY
$$



USA.gov is the U.S. government's official web portal to all federal, state and local government web resources and services.